KEZM

Details ICAO KEZM
Name HEART OF GEORGIA RGNL
Region United States
Timezone America/New_York (UTC-4.0)
Plans Departing 6
Arriving 4
Stats Elevation 304 ft / 93 m (AMSL)
Location 32.216390° -83.128670°
Runways 1
Magnetic Variation 5.810° W
Sunrise 2018-05-21 10:32:33 UTC / 2018-05-21 06:32:33 Local
Sunset 2018-05-22 00:28:32 UTC / 2018-05-21 20:28:32 Local
Advertisement - Login to hide

Runways

ID Width Length Bearing (true) Bearing (mag) Surface Threshold Offset Overrun Length
02 100 ft / 30 m 6,524 ft / 1,988 m 15.32° 21.13° Asphalt 0 ft / 0 m 0 ft / 0 m
20 100 ft / 30 m 6,524 ft / 1,988 m 195.32° 201.13° Asphalt 0 ft / 0 m 0 ft / 0 m

Approach Navaids

Runway Type Ident Frequency Range Bearing (true) Bearing (mag) Slope Elevation
02 Localiser IHUV 109.55 MHz 18 nm / 33 km 15.32° 21.13° - 302 ft / 92 m (AMSL)
02 Glidescope IHUV 109.55 MHz 10 nm / 19 km 15.32° 21.13° 3.00° 289 ft / 88 m (AMSL)

Map

Weather


0- 5 10 15 20 25 30 35+ Temperature / ° C

Clouds and Precipitation
Forecast for 2018-05-21 18:00 UTC. Updated 22 minutes ago

Ground ~20,000 ft ~40,000 ft Winds

METAR

KEZM 211535Z AUTO 12007KT 10SM BKN014 BKN020 OVC026 27/18 A3018 RMK AO2 T02660179

TAF

Not found

Frequencies

Recorded 119.42 MHz AWOS 3
Approach 119.60 MHz ATLANTA APP/DEP
Unicom 123.00 MHz CTAF/UNICOM
Approach 124.20 MHz ATLANTA APP/DEP
Warning: Do not use this data for real-world aviation or navigation. No guarantee of current accuracy is given.